Weather Roundup
Issued by NWS

Home | Current Version | Previous Version | Text Only | Print | Product List | Glossary On
Versions: 1 2 3 4 5 6 7 8 9 10 11 12 13 14 15 16 17 18 19 20 21 22 23 24 25 26 27 28 29 30 31 32 33 34 35 36 37 38 39 40 41 42 43 44 45 46 47 48 49 50
696
NZUS93 KARX 130859
HRRWXR

CURRENT HOURLY OBSERVATIONS ACROSS
MUCH OF THE UPPER MISSISSIPPI VALLEY
NATIONAL WEATHER SERVICE LA CROSSE WI
300 AM CST WED DEC 13 2017


...SOUTHEAST MINNESOTA...


CITY           SKY/WX    TMP DP  RH WIND       PRES   REMARKS
ROCHESTER      CLOUDY    27  23  85 S16       29.45F WCI  15
ROCHESTER/MAYO FAIR      29  23  78 SE8       29.49F WCI  21
WINONA         CLOUDY    28  21  74 SE6       29.55F WCI  22
AUSTIN         NOT AVBL
ALBERT LEA     CLOUDY    30  21  69 S10       29.44F WCI  21
DODGE CENTER   CLOUDY    27  23  86 S14       29.44F WCI  15
PRESTON        CLOUDY    26  21  82 S17       29.49F WCI  13
OWATONNA       CLOUDY    28  25  86 S10       29.43F WCI  19
FARIBAULT      CLOUDY    30  25  80 S10       29.42F WCI  21
$$

...ELSEWHERE IN MINNESOTA...


CITY           SKY/WX    TMP DP  RH WIND       PRES   REMARKS
MINNEAPOLIS    CLOUDY    29  26  89 SE8       29.41F WCI  21
INTNL FALLS    LGT SNOW  15  11  83 E8        29.49R VSB 3/4 WCI   4
DULUTH         LGT SNOW  15  14  95 SE14      29.46F WCI   0
RED WING       CLOUDY    28  21  74 SE8       29.46F WCI  20
REDWOOD FALLS  CLOUDY    39  25  57 W13       29.37F WCI  31
MANKATO        CLOUDY    30  25  81 S8        29.40F WCI  22
WORTHINGTON    CLOUDY    35  23  61 SW15      29.46F WCI  25
FAIRMONT       PTCLDY    33  24  69 SW12      29.43F WCI  24
$$

...SOUTHWEST WISCONSIN...


CITY           SKY/WX    TMP DP  RH WIND       PRES   REMARKS
LA CROSSE      MOCLDY    28  19  69 S14       29.55F WCI  17
PRAIRIE DU CHI PTCLDY    29  17  62 SE7       29.62F WCI  21
BOSCOBEL       PTCLDY    27  15  61 S5        29.63F WCI  22
LONE ROCK      NOT AVBL
PLATTEVILLE    CLOUDY    23  15  70 S10       29.66F WCI  12
FORT MC COY    CLOUDY    23  16  76 SE5       29.60F WCI  17
CAMP DOUGLAS   CLOUDY    20  12  73 SE8       29.59F WCI  10
MAUSTON-NEW LI CLOUDY    22  13  69 SE7       29.63F WCI  13
VIROQUA        FAIR      22  17  82 SE8       29.57F WCI  12
WIS DELLS      CLOUDY    21  11  65 S8        29.65F WCI  12
$$

...ELSEWHERE IN WISCONSIN...


CITY           SKY/WX    TMP DP  RH WIND       PRES   REMARKS
MILWAUKEE      CLOUDY    21   9  59 S7        29.78F WCI  12
MADISON        CLOUDY    23  11  60 S12       29.68F WCI  12
GREEN BAY      LGT SNOW  16   8  71 SE7       29.73F WCI   6
EAU CLAIRE     CLOUDY    20  14  77 E9        29.52F WCI   9
BLACK RVR FLS  PTSUNNY   21  12  68 CALM      29.58F
MEDFORD        CLOUDY    13  11  90 SE7       29.55F WCI   3
WAUSAU         CLOUDY    13  10  88 SE10      29.59F WCI   0
WIS RAPIDS     CLOUDY    17  11  77 SE9       29.63F WCI   6
MARSHFIELD     CLOUDY    16  12  84 SE14      29.56F WCI   2
RICE LAKE      CLOUDY    19  14  81 E10       29.51F WCI   7
$$

...NORTHEAST IOWA...


CITY           SKY/WX    TMP DP  RH WIND       PRES   REMARKS
WATERLOO       CLOUDY    29  22  75 S12       29.57F WCI  19
DUBUQUE        CLOUDY    22  15  75 S14       29.63F WCI   9
DECORAH        CLOUDY    28  23  80 S8        29.55F WCI  20
MASON CITY     PTCLDY    32  23  69 SW15G25   29.49F WCI  22
CHARLES CITY   MOCLDY    28  25  86 S12       29.53F WCI  18
OELWEIN        CLOUDY    27  23  86 S12       29.57F WCI  16
$$

...ELSEWHERE IN IOWA...


CITY           SKY/WX    TMP DP  RH WIND       PRES   REMARKS
DES MOINES     CLOUDY    34  24  67 S14       29.60F WCI  25
IOWA CITY      CLOUDY    30  20  66 S10       29.68F WCI  21
FORT DODGE     NOT AVBL
MARSHALLTOWN   CLOUDY    32  24  72 SW20G26   29.56F WCI  20
CEDAR RAPIDS   CLOUDY    28  20  71 S15       29.62F WCI  16
$$

...NORTHERN ILLINOIS...


CITY           SKY/WX    TMP DP  RH WIND       PRES   REMARKS
CHICAGO-OHARE  CLOUDY    22  11  62 S9        29.80F WCI  12
CHICAGO-MIDWAY CLOUDY    23  11  60 S9        29.83F WCI  13
MOLINE         CLOUDY    30  16  56 S8        29.73F WCI  22
ROCKFORD       CLOUDY    24  14  65 S10       29.76F WCI  14
PEORIA         CLOUDY    25   8  48 S12       29.82F WCI  14
$$

NOTE: "FAIR" INDICATES FEW OR NO CLOUDS BELOW 12,000 FEET WITH NO
SIGNIFICANT WEATHER AND/OR OBSTRUCTIONS TO VISIBILITY. WIND
SPEEDS ARE IN MILES-PER-HOUR.




USA.gov is the U.S. government's official web portal to all federal, state and local government web resources and services.